[[{"header":{"parameterUnit":"m.s-1","parameterCategory":1,"la1":30.2991,"la2":30.254,"lo1":-89.0895,"lo2":-89.0444,"dy":0.0017,"dx":0.0017,"nx":28,"ny":28,"refTime":"2025-03-18T09:00:00:Z","depth":0,"parameterNumber":2,"parameterNumberName":"U-component_of_WINDS"},"data":[0,0,0,0,0,0,0,0,0,0,0,0,0,0,0,0,0,0,0,0,0,0,0,0,0,0,0,0,0,0,0,0,0,0,0,0,0,0,0,0,0,0,0,0,0,0,0,0,0,0,0,0,0,0,0,0,0,0,0.0253,0.0254,0,0.0262,0.0263,0.0263,0.0199,0.0198,0.0196,0.0194,0.0204,0.0206,0.0208,0,0,0,0,0,0,0,0,0,0,0,0,0,0.0183,0.0184,0.0253,0.0254,0.0254,0.0262,0.0263,0.0263,0.02,0.0197,0.0195,0.0193,0.0203,0.0206,0.0208,0,0,0,0,0,0,0,0,0,0,0,0,0,0.0205,0.0185,0.0253,0.0223,0.0221,0.0262,0.0263,0.0263,0.02,0.0197,0.0195,0.0192,0.0203,0.0205,0.0208,0.028,0,0,0.0217,0.0218,0,0,0,0,0,0,0,0,0.0204,0.0207,0.0228,0.0225,0.0223,0.0227,0.0241,0.0268,0.0201,0.0208,0.0194,0.0191,0.0214,0.0216,0.0223,0.028,0.0281,0.0217,0.0219,0.022,0.0221,0,0,0,0,0,0,0,0.0202,0.0207,0.0257,0.0228,0.0225,0.021,0.021,0.0246,0.0226,0.0207,0.0203,0.0204,0.0212,0.0221,0.0223,0.0281,0.0217,0.022,0.0222,0.0223,0.0398,0.0401,0,0,0,0,0,0,0.0205,0.0206,0.0257,0.0257,0.0206,0.0213,0.0213,0.0228,0.0225,0.0222,0.0207,0.0201,0.0217,0.022,0.0223,0.0308,0.022,0.0223,0.0225,0.0395,0.0399,0.0402,0,0,0,0,0,0,0.0203,0.021,0.0256,0.023,0.0235,0.0217,0.0235,0.023,0.0238,0.0225,0.0221,0.0219,0.0215,0.0219,0.0266,0.0307,0.0224,0.0227,0.0392,0.0396,0.04,0.0477,0,0,0,0,0,0,0.0201,0.021,0.0236,0.0231,0.0237,0.0299,0.0237,0.0232,0.0244,0.0237,0.0236,0.0233,0.0213,0.0262,0.0269,0.031,0.0229,0.0388,0.0394,0.0399,0.0471,0.0484,0.0495,0,0,0,0,0,0.0199,0.0257,0.0238,0.0245,0.027,0.0302,0.0305,0.0281,0.0247,0.0274,0.0266,0.0233,0.0301,0.0268,0.0275,0.0317,0.0385,0.0392,0.0399,0.0466,0.0481,0.0494,0,0,0,0,0,0,0.0268,0.0256,0.0235,0.0293,0.0299,0.0291,0.0324,0.0298,0.0314,0.0307,0.0276,0.0277,0.033,0.0327,0.029,0.0387,0.0338,0.0346,0.0386,0.0401,0.0412,0.0413,0.0232,0,0,0,0,0,0.029,0.0316,0.0305,0.0358,0.0362,0.0343,0.0356,0.0337,0.0342,0.0344,0.0339,0.0345,0.0368,0.0384,0.0404,0.047,0.047,0.0502,0.0514,0.0524,0.0532,0.0568,0.0583,0.0424,0.0424,0.0423,0,0,0.0335,0.0332,0.0351,0.0371,0.0374,0.0403,0.0345,0.0378,0.04,0.0349,0.0394,0.039,0.0395,0.0453,0.0478,0.0453,0.0576,0.0532,0.054,0.0543,0.0576,0.0592,0.0605,0.0428,0.0427,0.0427,0,0,0.0434,0.0433,0.0478,0.0482,0.0486,0.0473,0.0484,0.048,0.0476,0.052,0.0483,0.0508,0.0548,0.0554,0.0562,0.0663,0.0635,0.067,0.0733,0.0768,0.0781,0.0792,0.083,0.0843,0.0678,0.0678,0.0679,0,0.049,0.0532,0.0504,0.054,0.0551,0.0506,0.0551,0.0556,0.0567,0.0576,0.0547,0.0597,0.0597,0.0656,0.0681,0.0688,0.0701,0.0671,0.0781,0.0792,0.0802,0.0838,0.0852,0.0683,0.0682,0.0682,0.0681,0,0.0602,0.0632,0.0667,0.0679,0.0693,0.0734,0.0713,0.0731,0.071,0.0701,0.0747,0.0746,0.0765,0.0778,0.0758,0.0834,0.0819,0.0786,0.0737,0.0822,0.0855,0.0868,0.0689,0.0688,0.0686,0.0685,0,0,0.0744,0.0741,0.0754,0.076,0.0761,0.0784,0.0823,0.0842,0.0859,0.0868,0.09,0.0935,0.0906,0.0915,0.0895,0.0926,0.1009,0.089,0.089,0.0914,0.1094,0.112,0.1136,0.0989,0.0991,0.0993,0.1094,0,0.0842,0.0908,0.0884,0.0952,0.098,0.0938,0.0971,0.0977,0.0969,0.0991,0.0982,0.1008,0.0966,0.0972,0.1,0.0993,0.1045,0.0985,0.102,0.1022,0.1022,0.1153,0.118,0.1276,0.1107,0.1109,0.1111,0,0.0964,0.0979,0.1049,0.1047,0.1058,0.1089,0.1105,0.1127,0.1132,0.1124,0.1135,0.1109,0.1148,0.1097,0.115,0.111,0.1123,0.1121,0.1125,0.1128,0.1073,0.1162,0.1305,0.132,0.113,0.1129,0.1127,0,0.1064,0.11,0.1148,0.1153,0.1151,0.1174,0.1175,0.1177,0.1191,0.1205,0.1214,0.1232,0.1243,0.1258,0.1238,0.1203,0.1295,0.1242,0.1291,0.1292,0.1313,0.1313,0.1463,0.1319,0.1319,0.1319,0.1318,0,0.1176,0.1221,0.1192,0.1222,0.1272,0.1244,0.1294,0.129,0.1292,0.1321,0.1285,0.1312,0.1283,0.1308,0.1293,0.134,0.1345,0.134,0.1336,0.1345,0.1346,0.1354,0.1347,0.1322,0.1321,0.1321,0.132,0,0.1296,0.1278,0.1327,0.1321,0.1321,0.1358,0.1354,0.1381,0.137,0.1406,0.1413,0.1397,0.1424,0.1406,0.1433,0.1423,0.1486,0.1471,0.1484,0.1481,0.1531,0.1527,0.1693,0.1714,0.1556,0.1557,0.1558,0,0.1369,0.1403,0.1401,0.1418,0.1421,0.1447,0.1461,0.1435,0.1451,0.146,0.1486,0.1511,0.1529,0.1575,0.1566,0.1587,0.1574,0.163,0.1577,0.1585,0.1577,0.1576,0.158,0.1642,0.1644,0.1645,0.1646,0,0.1503,0.1492,0.1513,0.1532,0.1549,0.1563,0.1573,0.1589,0.1562,0.1582,0.161,0.1624,0.1652,0.1678,0.1695,0.1696,0.1668,0.1663,0.1676,0.1686,0.1693,0.1692,0.1516,0.166,0.1659,0.1658,0.1657,0.1656,0.1603,0.1632,0.1635,0.166,0.1665,0.1676,0.1702,0.1694,0.1717,0.1738,0.1721,0.1755,0.176,0.178,0.1785,0.1811,0.1788,0.1806,0.1811,0.1816,0.1824,0.1687,0.1814,0.1813,0.1813,0.1813,0.1812,0,0.1736,0.1736,0.1759,0.1775,0.1795,0.1766,0.1776,0.1795,0.1825,0.1831,0.185,0.1883,0.1907,0.19,0.1922,0.1945,0.1933,0.1952,0.1951,0.1952,0.1842,0.183,0.1961,0.1961,0.1961,0.1961,0.1961,0.1961,0.1807,0.1855,0.1845,0.1896,0.1895,0.1928,0.1936,0.1947,0.1952,0.199,0.201,0.2005,0.2007,0.2029,0.205,0.2047,0.2058,0.2082,0.2075,0.1974,0.1959,0.1945,0.1934,0.2084,0.2085,0.2182,0.2183,0.2184]},{"header":{"parameterUnit":"m.s-1","parameterCategory":1,"la1":30.2991,"la2":30.254,"lo1":-89.0895,"lo2":-89.0444,"dy":0.0017,"dx":0.0017,"nx":28,"ny":28,"refTime":"2025-03-18T09:00:00:Z","depth":0,"parameterNumber":3,"parameterNumberName":"V-component_of_WINDS"},"data":[0,0,0,0,0,0,0,0,0,0,0,0,0,0,0,0,0,0,0,0,0,0,0,0,0,0,0,0,0,0,0,0,0,0,0,0,0,0,0,0,0,0,0,0,0,0,0,0,0,0,0,0,0,0,0,0,0,0,-1.2136,-1.2136,0,-1.2145,-1.2145,-1.2145,-1.2146,-1.2146,-1.2146,-1.2146,-1.2154,-1.2154,-1.2155,0,0,0,0,0,0,0,0,0,0,0,0,0,-1.2121,-1.2121,-1.2136,-1.2136,-1.2136,-1.2145,-1.2145,-1.2145,-1.2146,-1.2146,-1.2146,-1.2146,-1.2154,-1.2154,-1.2155,0,0,0,0,0,0,0,0,0,0,0,0,0,-1.2128,-1.2121,-1.2136,-1.2138,-1.2138,-1.2145,-1.2145,-1.2145,-1.2146,-1.2146,-1.2146,-1.2146,-1.2154,-1.2154,-1.2155,-1.216,0,0,-1.2156,-1.2156,0,0,0,0,0,0,0,0,-1.2128,-1.2129,-1.2137,-1.2138,-1.2138,-1.2144,-1.2142,-1.215,-1.2146,-1.2143,-1.2146,-1.2146,-1.2151,-1.2151,-1.2153,-1.216,-1.2161,-1.2156,-1.2156,-1.2157,-1.2157,0,0,0,0,0,0,0,-1.2127,-1.2128,-1.2139,-1.2138,-1.2138,-1.2138,-1.2139,-1.2144,-1.2147,-1.2143,-1.2143,-1.2144,-1.2151,-1.2153,-1.2154,-1.2161,-1.2156,-1.2156,-1.2157,-1.2157,-1.2173,-1.2173,0,0,0,0,0,0,-1.2127,-1.2128,-1.2139,-1.214,-1.2133,-1.2139,-1.214,-1.2142,-1.2147,-1.2148,-1.2144,-1.2144,-1.2152,-1.2153,-1.2154,-1.2161,-1.2157,-1.2157,-1.2157,-1.2173,-1.2173,-1.2174,0,0,0,0,0,0,-1.2126,-1.2127,-1.2139,-1.2134,-1.2135,-1.2139,-1.2142,-1.2143,-1.2144,-1.2148,-1.2149,-1.2146,-1.2152,-1.2153,-1.2159,-1.2161,-1.2157,-1.2158,-1.2173,-1.2173,-1.2173,-1.2174,0,0,0,0,0,0,-1.2126,-1.2127,-1.2129,-1.2134,-1.2136,-1.2143,-1.2142,-1.2143,-1.2145,-1.2145,-1.215,-1.215,-1.2152,-1.2158,-1.2159,-1.2161,-1.2158,-1.2173,-1.2173,-1.2173,-1.2174,-1.2174,-1.2175,0,0,0,0,0,-1.2125,-1.2129,-1.2129,-1.2131,-1.2138,-1.2143,-1.2144,-1.2146,-1.2146,-1.2147,-1.215,-1.215,-1.2161,-1.2158,-1.216,-1.2162,-1.2173,-1.2173,-1.2173,-1.2174,-1.2174,-1.2175,0,0,0,0,0,0,-1.2123,-1.2129,-1.213,-1.2135,-1.2139,-1.2144,-1.2146,-1.2147,-1.2151,-1.215,-1.2153,-1.2154,-1.2159,-1.2161,-1.2159,-1.2168,-1.2167,-1.2167,-1.2166,-1.2167,-1.2167,-1.2166,-1.2158,0,0,0,0,0,-1.2124,-1.2128,-1.2133,-1.2137,-1.2139,-1.2142,-1.2144,-1.2146,-1.215,-1.2151,-1.2154,-1.2158,-1.2162,-1.2165,-1.2169,-1.2174,-1.2176,-1.2177,-1.2177,-1.2178,-1.2178,-1.2182,-1.2183,-1.2175,-1.2175,-1.2175,0,0,-1.2124,-1.2128,-1.213,-1.2137,-1.214,-1.2144,-1.2143,-1.2147,-1.2151,-1.2152,-1.2157,-1.216,-1.2164,-1.217,-1.2172,-1.2172,-1.2181,-1.2178,-1.2179,-1.2179,-1.2182,-1.2183,-1.2184,-1.2175,-1.2175,-1.2175,0,0,-1.2127,-1.213,-1.2134,-1.2138,-1.2143,-1.2145,-1.2146,-1.2151,-1.2153,-1.2159,-1.216,-1.2164,-1.2171,-1.2174,-1.2177,-1.2182,-1.2183,-1.2184,-1.2186,-1.2189,-1.219,-1.219,-1.2193,-1.2193,-1.2184,-1.2184,-1.2184,0,-1.2127,-1.2133,-1.2136,-1.2141,-1.2144,-1.2146,-1.215,-1.2153,-1.2159,-1.2161,-1.216,-1.217,-1.2173,-1.218,-1.2181,-1.2183,-1.2185,-1.2183,-1.219,-1.219,-1.2191,-1.2193,-1.2194,-1.2184,-1.2184,-1.2184,-1.2184,0,-1.2133,-1.2138,-1.214,-1.2146,-1.215,-1.2154,-1.2158,-1.2161,-1.2163,-1.2165,-1.2172,-1.2176,-1.2181,-1.2183,-1.2184,-1.219,-1.2189,-1.2189,-1.2187,-1.2192,-1.2194,-1.2194,-1.2184,-1.2184,-1.2184,-1.2184,0,0,-1.2134,-1.2143,-1.2144,-1.2147,-1.2153,-1.2157,-1.2161,-1.2167,-1.217,-1.2174,-1.2178,-1.2185,-1.2185,-1.2188,-1.219,-1.2193,-1.2198,-1.2193,-1.2193,-1.2193,-1.2205,-1.2205,-1.2206,-1.2199,-1.2199,-1.2199,-1.2205,0,-1.2138,-1.2146,-1.215,-1.2157,-1.2161,-1.2164,-1.2168,-1.2173,-1.2176,-1.218,-1.2183,-1.2188,-1.2188,-1.219,-1.2193,-1.2197,-1.22,-1.2196,-1.2202,-1.2203,-1.2201,-1.2207,-1.2206,-1.2212,-1.2206,-1.2206,-1.2206,0,-1.2143,-1.2148,-1.2155,-1.2162,-1.2164,-1.2167,-1.2173,-1.2177,-1.2183,-1.2185,-1.2189,-1.2191,-1.2196,-1.2195,-1.2203,-1.22,-1.2203,-1.2205,-1.2206,-1.2206,-1.2204,-1.2207,-1.2213,-1.2214,-1.2207,-1.2207,-1.2207,0,-1.2143,-1.2151,-1.2157,-1.216,-1.2167,-1.217,-1.2173,-1.2179,-1.2182,-1.2187,-1.219,-1.2195,-1.2198,-1.2203,-1.2207,-1.2205,-1.2214,-1.2213,-1.2216,-1.2216,-1.2217,-1.2217,-1.2224,-1.222,-1.222,-1.222,-1.222,0,-1.2146,-1.215,-1.2157,-1.2161,-1.2166,-1.2171,-1.2176,-1.2179,-1.2184,-1.2189,-1.2192,-1.2196,-1.2201,-1.2205,-1.2208,-1.2215,-1.2216,-1.2218,-1.2218,-1.2217,-1.2217,-1.2219,-1.2218,-1.222,-1.222,-1.222,-1.222,0,-1.2146,-1.2151,-1.2158,-1.2165,-1.2167,-1.2171,-1.2177,-1.2181,-1.2184,-1.219,-1.2192,-1.2197,-1.2203,-1.2208,-1.2215,-1.2217,-1.2224,-1.2225,-1.2222,-1.2222,-1.2225,-1.2224,-1.2233,-1.2234,-1.2229,-1.2229,-1.2229,0,-1.2148,-1.2152,-1.216,-1.2163,-1.2166,-1.2172,-1.2175,-1.218,-1.2184,-1.2191,-1.2194,-1.22,-1.2206,-1.2215,-1.222,-1.2226,-1.2227,-1.2229,-1.2228,-1.2227,-1.2227,-1.2226,-1.2227,-1.2229,-1.2229,-1.2229,-1.2229,0,-1.215,-1.2153,-1.2158,-1.2165,-1.2169,-1.2174,-1.218,-1.2182,-1.2188,-1.2192,-1.2199,-1.2203,-1.2211,-1.2217,-1.2224,-1.2228,-1.223,-1.223,-1.2231,-1.223,-1.2228,-1.2229,-1.2222,-1.223,-1.223,-1.223,-1.223,-1.223,-1.2151,-1.2155,-1.2161,-1.2167,-1.2172,-1.2177,-1.2181,-1.2186,-1.2191,-1.2199,-1.2201,-1.2208,-1.2214,-1.2224,-1.2227,-1.2233,-1.2233,-1.2234,-1.2234,-1.2235,-1.2234,-1.2228,-1.2234,-1.2234,-1.2234,-1.2234,-1.2234,0,-1.2154,-1.2158,-1.2164,-1.2172,-1.2177,-1.2179,-1.2185,-1.2189,-1.2195,-1.2201,-1.2206,-1.2214,-1.222,-1.2226,-1.2233,-1.2236,-1.2237,-1.2238,-1.2237,-1.2238,-1.2234,-1.2233,-1.2237,-1.2237,-1.2237,-1.2237,-1.2237,-1.2237,-1.2156,-1.2162,-1.2166,-1.2175,-1.2179,-1.2186,-1.2189,-1.2194,-1.2199,-1.2207,-1.2213,-1.2217,-1.2223,-1.223,-1.2236,-1.2238,-1.224,-1.2241,-1.2242,-1.2238,-1.2238,-1.2238,-1.2236,-1.2241,-1.2241,-1.2246,-1.2246,-1.2246]}]]